CW7710 Weather Reports


Display with metric or nautical units.
time (UTC)temp
F
wind
direction
speed
MPH
gust
MPH
rain 1hr
in
rain 24hr
in
rain mn
in
humidity
%
barometer
mb
20260903030339 62 190 0.0 0.0 0.00 0.00 0.00 47 1010.4
20260903025325 63 10 4.0 0.0 0.00 0.00 0.00 46 1010.4
20260903024353 64 67 5.0 0.0 0.00 0.00 0.00 45 1010.3
20260903023335 64 356 8.0 0.0 0.00 0.00 0.00 45 1010.2
20260903022335 64 35 9.0 0.0 0.00 0.00 0.00 46 1010.3
20260903021336 64 18 10.0 0.0 0.00 0.00 0.00 46 1010.1
20260903020325 65 7 10.0 0.0 0.00 0.00 0.00 44 1009.8
20260903015332 65 354 11.0 0.0 0.00 0.00 0.00 44 1010.3
20260903014335 65 10 12.0 0.0 0.00 0.00 0.00 45 1010.3
20260903013338 64 16 12.0 0.0 0.00 0.00 0.00 45 1010.1
20260903012400 65 19 12.0 0.0 0.00 0.00 0.00 45 1010.1
20260903011327 66 353 12.0 0.0 0.00 0.00 0.00 42 1009.8
20260903010331 68 356 10.0 0.0 0.00 0.00 0.00 38 1009.5
20260903005338 69 353 10.0 0.0 0.00 0.00 0.00 36 1010.0
20260903004340 70 315 10.0 0.0 0.00 0.00 0.00 35 1009.8
20260903003404 71 307 11.0 0.0 0.00 0.00 0.00 34 1009.8
20260903002329 72 302 13.0 0.0 0.00 0.00 0.00 34 1009.4
20260903001333 72 296 13.0 0.0 0.00 0.00 0.00 34 1009.6
20260903000340 72 304 16.0 0.0 0.00 0.00 0.00 33 1009.6
20260902235343 73 293 16.0 0.0 0.00 0.00 0.00 32 1010.0
20260902234330 73 311 15.0 0.0 0.00 0.00 0.00 31 1009.9
20260902233337 74 298 18.0 0.0 0.00 0.00 0.00 32 1009.6
20260902232320 73 301 16.0 0.0 0.00 0.00 0.00 32 1009.7
20260902231350 74 245 18.0 0.0 0.00 0.00 0.00 33 1009.4
20260902230336 75 273 17.0 0.0 0.00 0.00 0.00 33 1009.2
20260902225339 74 288 17.0 0.0 0.00 0.00 0.00 34 1008.9
20260902224325 75 292 24.0 0.0 0.00 0.00 0.00 32 1009.0
20260902223329 77 253 28.0 0.0 0.00 0.00 0.00 30 1009.4
20260902222340 78 263 18.0 0.0 0.00 0.00 0.00 28 1009.3
20260902221343 75 251 20.0 0.0 0.00 0.00 0.00 30 1008.7
20260902220345 74 255 22.0 0.0 0.00 0.00 0.00 33 1009.0
20260902215328 76 265 26.0 0.0 0.00 0.00 0.00 31 1009.7
20260902214332 74 278 25.0 0.0 0.00 0.00 0.00 31 1008.5
20260902213358 73 258 24.0 0.0 0.00 0.00 0.00 31 1008.8
20260902212334 78 261 25.0 0.0 0.00 0.00 0.00 27 1008.5
20260902211336 81 192 26.0 0.0 0.00 0.00 0.00 19 1007.8
20260902210340 84 186 25.0 0.0 0.00 0.00 0.00 19 1007.9
20260902205327 83 206 29.0 0.0 0.00 0.00 0.00 19 1007.3
20260902204351 84 215 25.0 0.0 0.00 0.00 0.00 19 1007.7
20260902203357 83 219 23.0 0.0 0.00 0.00 0.00 20 1007.7
20260902202340 82 190 23.0 0.0 0.00 0.00 0.00 20 1007.9
20260902201403 84 200 24.0 0.0 0.00 0.00 0.00 22 1007.5
20260902200343 83 176 25.0 0.0 0.00 0.00 0.00 21 1007.5
20260902195326 83 225 26.0 0.0 0.00 0.00 0.00 22 1007.9
20260902194330 84 200 27.0 0.0 0.00 0.00 0.00 21 1008.3
20260902193337 85 198 24.0 0.0 0.00 0.00 0.00 21 1007.9
20260902192327 82 190 18.0 0.0 0.00 0.00 0.00 25 1007.8
20260902191329 77 198 11.0 0.0 0.00 0.00 0.00 36 1008.7
20260902190335 76 125 8.0 0.0 0.00 0.00 0.00 47 1009.0
20260902185338 74 57 10.0 0.0 0.00 0.00 0.00 53 1008.7
20260902184344 75 80 12.0 0.0 0.00 0.00 0.00 52 1008.9
20260902183347 73 93 9.0 0.0 0.00 0.00 0.00 53 1009.5
20260902182329 72 77 8.0 0.0 0.00 0.00 0.00 53 1009.7
20260902181333 73 113 6.0 0.0 0.00 0.00 0.00 53 1010.0
20260902180339 72 89 5.0 0.0 0.00 0.00 0.00 54 1010.1
20260902175326 71 88 4.0 0.0 0.00 0.00 0.00 55 1009.7
20260902174329 70 119 5.0 0.0 0.00 0.00 0.00 56 1009.8
20260902173334 69 84 2.0 0.0 0.00 0.00 0.00 58 1010.2
20260902172404 69 126 3.0 0.0 0.00 0.00 0.00 60 1010.3
20260902171350 68 36 4.0 0.0 0.00 0.00 0.00 61 1010.3
20260902170331 67 40 1.0 0.0 0.00 0.00 0.00 63 1011.7
20260902165335 67 115 1.0 0.0 0.00 0.00 0.00 65 1010.8
20260902164339 66 94 0.0 0.0 0.00 0.00 0.00 68 1010.4
20260902163326 64 16 0.0 0.0 0.00 0.00 0.00 72 1010.7
20260902162329 63 97 2.0 0.0 0.00 0.00 0.00 75 1010.9
20260902161355 62 92 2.0 0.0 0.00 0.00 0.00 77 1010.9
20260902160336 61 79 3.0 0.0 0.00 0.00 0.00 77 1011.1
20260902155343 61 71 4.0 0.0 0.00 0.00 0.00 76 1010.8
20260902154329 61 120 3.0 0.0 0.00 0.00 0.00 77 1010.9
20260902153335 60 109 4.0 0.0 0.00 0.00 0.00 78 1011.3
20260902152359 59 106 3.0 0.0 0.00 0.00 0.00 78 1011.6
20260902151325 59 119 4.0 0.0 0.00 0.00 0.00 78 1011.8
20260902150347 59 89 3.0 0.0 0.00 0.00 0.00 78 1011.9
20260902145334 59 93 4.0 0.0 0.00 0.00 0.00 78 1011.7
20260902144337 59 94 5.0 0.0 0.00 0.00 0.00 78 1011.8
20260902143341 60 80 3.0 0.0 0.00 0.00 0.00 80 1011.4
20260902142344 58 333 2.0 0.0 0.00 0.00 0.00 83 1011.6
20260902141331 57 237 2.0 0.0 0.00 0.00 0.00 85 1012.0
20260902140333 56 242 1.0 0.0 0.00 0.00 0.00 85 1012.2
20260902135336 55 123 1.0 0.0 0.00 0.00 0.00 85 1012.0
20260902134343 55 124 1.0 0.0 0.00 0.00 0.00 85 1012.0
20260902133330 54 210 3.0 0.0 0.00 0.00 0.00 85 1012.2
20260902132354 53 209 3.0 0.0 0.00 0.00 0.00 85 1012.6
20260902131336 52 261 4.0 0.0 0.00 0.00 0.00 85 1012.7
20260902130338 52 279 4.0 0.0 0.00 0.00 0.00 84 1012.0
20260902125401 52 242 2.0 0.0 0.00 0.00 0.00 84 1012.5
20260902124327 53 305 3.0 0.0 0.00 0.00 0.00 83 1012.9
20260902123330 53 261 2.0 0.0 0.00 0.00 0.00 83 1013.0
20260902122359 53 192 2.0 0.0 0.00 0.00 0.00 83 1012.9
20260902121342 54 128 2.0 0.0 0.00 0.00 0.00 82 1012.7
20260902120330 54 89 2.0 0.0 0.00 0.00 0.00 82 1012.8
20260902115344 55 134 3.0 0.0 0.00 0.00 0.00 82 1012.4
20260902114328 55 97 2.0 0.0 0.00 0.00 0.00 82 1012.6
20260902113334 55 97 2.0 0.0 0.00 0.00 0.00 81 1012.6
20260902112341 56 127 4.0 0.0 0.00 0.00 0.00 81 1012.7
20260902111344 56 181 6.0 0.0 0.00 0.00 0.00 81 1012.8
20260902110348 56 167 6.0 0.0 0.00 0.00 0.00 81 1012.8
20260902105329 56 196 9.0 0.0 0.00 0.00 0.00 80 1013.7
20260902104336 56 144 9.0 0.0 0.00 0.00 0.00 80 1012.9
20260902103359 55 77 10.0 0.0 0.00 0.00 0.00 79 1012.7
20260902102341 56 43 3.0 0.0 0.00 0.00 0.00 77 1013.5
20260902101343 56 119 4.0 0.0 0.00 0.00 0.00 77 1014.2
20260902100326 57 96 2.0 0.0 0.00 0.00 0.00 76 1014.3
20260902095333 57 211 2.0 0.0 0.00 0.00 0.00 77 1014.7
20260902094336 58 144 3.0 0.0 0.00 0.00 0.00 77 1014.5
20260902093358 57 85 3.0 0.0 0.00 0.00 0.00 75 1014.4
20260902092340 57 72 6.0 0.0 0.00 0.00 0.00 73 1014.4
20260902091327 58 242 8.0 0.0 0.00 0.00 0.00 72 1014.1
20260902090334 59 207 10.0 0.0 0.00 0.00 0.00 71 1014.5
20260902085337 59 216 11.0 0.0 0.00 0.00 0.00 71 1014.7
20260902084340 60 223 6.0 0.0 0.00 0.00 0.00 71 1014.3
20260902083327 60 234 5.0 0.0 0.00 0.00 0.00 72 1014.4
20260902082350 60 344 6.0 0.0 0.00 0.00 0.00 72 1014.4
20260902081332 61 210 8.0 0.0 0.00 0.00 0.00 72 1014.4
20260902080335 61 201 6.0 0.0 0.00 0.00 0.00 70 1014.6
20260902075337 62 235 4.0 0.0 0.00 0.00 0.00 68 1014.5
20260902074344 62 161 2.0 0.0 0.00 0.00 0.00 67 1014.9
20260902073328 62 306 2.0 0.0 0.00 0.00 0.00 67 1014.4
20260902072334 61 280 3.0 0.0 0.00 0.00 0.00 67 1014.4
20260902071336 62 273 4.0 0.0 0.00 0.00 0.00 64 1014.2
20260902070343 64 310 5.0 0.0 0.00 0.00 0.00 62 1014.6
20260902065325 64 322 8.0 0.0 0.00 0.00 0.00 62 1013.9
20260902064328 65 302 9.0 0.0 0.00 0.00 0.00 60 1014.0
20260902063331 67 302 13.0 0.0 0.00 0.00 0.00 56 1014.3
20260902062337 68 276 19.0 0.0 0.00 0.00 0.00 54 1014.0
20260902061324 69 239 26.0 0.0 0.00 0.00 0.00 48 1013.4
20260902060350 70 204 20.0 0.0 0.00 0.00 0.00 48 1013.4
20260902055352 64 234 7.0 0.0 0.00 0.00 0.00 66 1012.7
20260902054354 61 225 5.0 0.0 0.00 0.00 0.00 68 1012.4
20260902053339 61 190 3.0 0.0 0.00 0.00 0.00 67 1012.1
20260902052345 62 146 3.0 0.0 0.00 0.00 0.00 65 1011.9
20260902051328 63 75 2.0 0.0 0.00 0.00 0.00 64 1011.6
20260902050330 63 83 3.0 0.0 0.00 0.00 0.00 63 1011.8
20260902045333 63 86 2.0 0.0 0.00 0.00 0.00 63 1012.3
20260902044400 64 172 1.0 0.0 0.00 0.00 0.00 61 1012.6
20260902043325 64 190 1.0 0.0 0.00 0.00 0.00 60 1012.5
20260902042328 65 138 2.0 0.0 0.00 0.00 0.00 59 1012.1
20260902040351 65 146 3.0 0.0 0.00 0.00 0.00 58 1012.8
20260902035336 65 78 3.0 0.0 0.00 0.00 0.00 57 1011.7
20260902034337 67 73 3.0 0.0 0.00 0.00 0.00 54 1011.5
20260902033337 67 97 2.0 0.0 0.00 0.00 0.00 54 1011.5
20260902032400 67 78 3.0 0.0 0.00 0.00 0.00 53 1011.6
20260902031341 67 75 4.0 0.0 0.00 0.00 0.00 52 1011.5